Simultaneous Nadir Overpasses (SNOs) Predictions

Prediction of SNOs between NOAA-19 and TERRA Satellite Orbit:

Table of predicted SNOs for the next 14.0 days since TLE Epoch: 1/6/2024
Index Date (NOAA-19) Time (NOAA-19) Lat,Lon (NOAA-19) SZA (NOAA-19 ) Date (TERRA) Time (TERRA) Lat,Lon (TERRA) SZA (TERRA ) Distance(km) Time Diff (sec)
1 01/07/2024 18:15:03 -80.46, 111.99 76.44 01/07/2024 18:16:13 -80.46, 112.05 76.41 1.23 70
2 01/07/2024 19:05:54 80.51, -79.68 103.68 01/07/2024 19:05:33 80.52, -79.73 103.68 0.99 21
3 01/09/2024 22:05:11 80.45,-125.52 103.26 01/09/2024 22:05:56 80.46,-125.41 103.28 2.18 45
4 01/09/2024 22:56:13 -80.50, 42.60 76.65 01/09/2024 22:55:16 -80.51, 42.75 76.65 2.93 57
5 01/12/2024 01:55:28 -80.48, -2.53 77.02 01/12/2024 01:55:38 -80.48, -2.67 77.03 2.55 10
6 01/14/2024 04:55:28 -79.32, -61.44 79.19 01/14/2024 04:56:38 -79.03, -58.51 79.36 69.22 70
7 01/14/2024 05:45:35 80.49, 120.08 102.62 01/14/2024 05:45:20 80.48, 119.93 102.61 2.77 15
8 01/16/2024 08:44:52 80.42, 74.13 102.09 01/16/2024 08:45:42 80.43, 74.28 102.12 3.09 50
9 01/16/2024 09:35:53 -80.49,-117.29 77.76 01/16/2024 09:35:02 -80.49,-117.45 77.79 3.04 51



Historial Predications of SNOs between NOAA-19 and TERRA
